www.pogodaiklimat.ru

Погода и климат >> Архив погоды >> Россия >> Красноярский край >> Курейка


ПОГОДА в Курейке

  • Прогноз погоды в Курейке
  • Монитор погоды в Курейке

АРХИВ ПОГОДЫ в Курейке

Время (UTC), дата Ветер
(напр.,м/с)
 
Видим.   Явления Облачность Т
(С)
Тd
(С)
f
(%)
Тe
(С)
Тes
(С)
Комфортность P
(гПа)
Po
(гПа)
Тmin
(С)
Tmax
(С)
R
(мм)
R24
(мм)
S
(см)
18 14.05 СЗ 3 50 км ясно +0.8 -7.0 56 -3 -3 1022.3 1018.7
21 14.05 СЗ 3 50 км ясно -3.0 -8.1 68 -8 -8 1020.9 1017.3
00 15.05 СЗ 2 50 км ясно -3.4 -7.0 76 -7 -5 1020.4 1016.8 -3.4 77
03 15.05 СЗ 3 50 км ясно -0.2 -6.0 65 -5 +1 1020.9 1017.3
06 15.05 СЗ 4 50 км 3/0
[Ci fib]
+3.0 -4.9 56 -1 +5 1020.8 1017.3
09 15.05 С 3 50 км 1/0
[Ci fib]
+4.2 -7.0 44 +1 +7 1020.8 1017.3
12 15.05 С 3 50 км ясно +3.7 -7.3 44 +1 +3 1020.7 1017.2 +4.4
15 15.05 С 3 50 км ясно +1.8 -7.5 50 -2 -2 1022.3 1018.7
18 15.05 СЗ 4 50 км ясно -0.9 -8.8 55 -6 -6 1022.3 1018.7
21 15.05 С 3 50 км ясно -1.8 -8.3 61 -6 -6 1022.3 1018.7
00 16.05 С 2 50 км ясно -1.7 -7.4 65 -5 -3 1021.5 1017.9 -1.8 76
03 16.05 С 1 50 км 3/0
[Ci fib]
+2.2 -6.1 54 +1 +8 1022.2 1018.7
06 16.05 В 2 50 км 3/0
[Ci fib]
+4.2 -4.8 52 +2 +11 опасность
простуды
1022.2 1018.7
09 16.05 С 1 50 км 3/0
[Ci fib]
+5.6 -5.4 45 +5 +12 1022.2 1018.7
12 16.05 СВ 1 50 км 3/0
[Ci fib]
+5.4 -5.8 44 +5 +8 1020.7 1017.2 +5.8
15 16.05 С 1 50 км ясно +3.2 -7.3 46 +2 +3 1022.2 1018.7
18 16.05 С 1 50 км ясно +0.4 -7.8 54 -1 -1 1020.9 1017.3
21 16.05 штиль 0 50 км 3/0
[Ci fib]
-3.0 -8.8 64 -4 -4 1020.9 1017.3
00 17.05 СВ 1 50 км 3/0
[Ci fib]
-0.6 -7.4 60 -2 0 1020.2 1016.7 -3.0 74
03 17.05 СВ 1 50 км ясно +3.8 -4.9 53 +3 +11 опасность
простуды
1020.8 1017.3
06 17.05 В 2 50 км 1/0
[Ci fib]
+6.8 -4.3 45 +5 +15 опасность
простуды
1020.8 1017.3
09 17.05 В 1 50 км 3/0
[Cs]
+7.6 -5.1 40 +7 +15 1019.5 1016.0
12 17.05 В 1 50 км 3/0 2000 м
[Ac lent]
+7.6 -4.7 41 +7 +10 1018.6 1015.2 +7.6
15 17.05 В 2 50 км 3/0 2000 м
[Ac lent]
+5.6 -5.1 46 +4 +4 1019.5 1016.0
18 17.05 В 3 50 км 4/0 2000 м
[Ac As]
+2.2 -4.5 61 -2 -2 1019.5 1016.0
21 17.05 В 2 50 км 6/6 600 м
[Sc]
+1.1 -5.2 63 -2 -2 1019.5 1016.0
00 18.05 В 1 50 км 4/4 600 м
[Sc]
+0.9 -4.4 68 -1 +1 1018.0 1014.5 +0.9 66
03 18.05 ЮВ 5 50 км 3/0
[Ci fib]
+5.0 -4.3 51 +1 +4 1018.2 1014.7
06 18.05 ЮВ 5 50 км 4/4 600 м
[Cu med, cong]
+7.0 -4.7 43 +4 +7 1018.2 1014.7
09 18.05 ЮВ 5 50 км 6/6 600 м
[Cu med, cong]
+7.6 -5.1 40 +4 +6 1016.8 1013.3
12 18.05 ЮВ 4 50 км 5/5 600 м
[Cu Sc]
+6.9 -4.2 45 +4 +5 1014.8 1011.3 +7.8
15 18.05 В 5 50 км 4/3 600 м
[Sc Ci fib]
+6.2 -5.8 42 +3 +3 1015.5 1012.0
18 18.05 В 4 50 км 3/3 600 м
[Sc]
+3.0 -4.2 59 -1 -1 1014.2 1010.7
21 18.05 В 4 50 км 8/0 2000 м
[As trans]
+3.6 -4.1 57 -0 -0 1011.5 1008.0
00 19.05 В 3 50 км 10/0 2000 м
[As trans]
+4.1 -0.5 72 +1 +1 1009.0 1005.6 +3.0 62
03 19.05 ЮВ 4 50 км 10 баллов +4.6 -0.6 69 +1 +1 1008.8 1005.3
06 19.05 В 4 50 км 10/10 600 м
[Cb cap]
+4.0 -0.0 75 -0 -0 1007.5 1004.0
09 19.05 В 4 50 км 10/10 600 м
[Cb cap]
+6.2 +1.1 70 +3 +3 1006.1 1002.7
12 19.05 В 5 10 км слаб. ливневой дождь 10/10 600 м
[Cb cap]
+3.7 +2.2 90 -2 -2 1004.4 1001.0 +6.4 0.3
21 19.05 В 3 50 км {ливн. осадки} 10/10 600 м
[Cb cap]
+3.5 +2.0 90 -1 -1 1002.2 998.7
00 20.05 В 2 50 км {ливн. осадки} 10/10 600 м
[Cb cap]
+3.8 -2.3 64 +1 +1 998.3 994.9 +3.4 0.6 59
03 20.05 В 1 50 км 10/10 600 м
[Cb cap]
+4.2 +1.7 84 +3 +3 998.1 994.7
06 20.05 ЮВ 3 500 м туман ?/? +4.4 +2.3 86 +1 +1 999.4 996.0
09 20.05 Ю 2 500 м слаб. ливневой дождь н/о +4.2 +2.7 90 +1 1000.7 997.3
12 20.05 Ю 1 4000 м слаб. ливневой дождь {туман} 10/10 600 м
[Cb cap]
+4.0 +2.5 90 +3 +3 1000.2 996.8 +4.6 2
15 20.05 штиль 0 50 км {ливн. осадки} 10/10 600 м
[Cb cap]
+3.6 +1.8 88 +3 +3 1000.7 997.3
18 20.05 ЮВ 1 50 км {ливн. осадки} 10/10 600 м
[Cb cap]
+3.2 +1.4 88 +2 +2 999.4 996.0
21 20.05 штиль 0 50 км 10/10 600 м
[Cb cap]
+2.8 +0.7 86 +2 +2 998.2 994.7
00 21.05 штиль 0 10 км слаб. ливневой дождь 10/10 600 м
[Cb cap]
+2.4 +0.8 89 +1 +1 995.5 992.1 +2.4 2 57
03 21.05 штиль 0 50 км 9 баллов +4.2 +1.4 82 +3 +4 995.4 992.0
06 21.05 СЗ 3 50 км 10 баллов +4.4 +1.6 82 +1 +1 995.4 992.0
09 21.05 СЗ 2 50 км 10 баллов +7.2 +2.7 73 +5 +5 995.4 992.0
12 21.05 СЗ 2 20 км слаб. ливневой дождь 10/10 600 м
[Cb cap]
+4.6 +1.8 82 +2 +2 994.9 991.5 +7.2 0.5

 

Местоположение метеостанции Курейка (Красноярский край, Россия): широта 66.47 долгота 87.22 высота над уровнем моря 28 м.

В архиве по умолчанию представлена погода в Курейке за последнюю неделю. Архивные данные за месяц целиком и за предыдущие месяцы, начиная с января 2011 года, Вы можете получить, выбрав интересующий диапазон дат из раскрывающегося списка и нажав кнопку "Ввод!".


*Определитесь, кто Вы:
робот инопланетянин человек

Внимание! Время в таблицах - всемирное. Для получения местного времени необходимо прибавить поправку, которая равна 7 ч.

Смотрите также архив погоды в соседних городах и на ближайших метеорологических станциях:

Погода в Светлогорске (Красноярский край, Россия) (75 км)
Погода в Туруханске (Красноярский край, Россия) (83 км)
Погода в Игарке (Красноярский край, Россия) (115 км)
Погода в Горбиачине (Красноярский край, Россия) (115 км)
Погода в Советской Речке (Красноярский край, Россия) (156 км)
Погода в Большом Пороге (Эвенкия, Россия) (158 км)
Погода в Снежногорске (Красноярский край, Россия) (183 км)
Погода в Красноселькупске (Ямало-Ненецкий АО, Россия) (231 км)
Погода в Потапово (Красноярский край, Россия) (248 км)
Погода в Верещагино (Красноярский край, Россия) (249 км)

Пояснения к столбцам:

Ветер - указаны скорость ветра в м/с - средняя за 10 мин, порывы в срок и между сроками (в фигурных скобках) и направление, откуда дует ветер: С - северный, СВ - северо-восточный, В - восточный, ЮВ - юго-восточный, Ю - южный, ЮЗ - юго-западный, З - западный, СЗ - северо-западный.
Видимость - горизонтальная дальность видимости в метрах или километрах. При видимости от 1 до 10 км при отсутствии осадков обычно наблюдается дымка, при ухудшении видимости до 1 км и менее - туман. В сухую погоду видимость может ухудшаться дымом, пылью или мглою.
Явления - указаны атмосферные явления, наблюдавшиеся в срок или в последний час перед сроком; фигурными скобками обозначены явления, наблюдавшиеся между сроками (за 1-3 часа до срока); квадратными скобками обозначены град или гололедные отложения с указанием их диаметра в мм.
Облачность - указаны через наклонную черту общая и нижняя облачность в баллах и высота нижней границы облаков в метрах; квадратными скобками обозначены формы облаков: Ci - перистые, Cs - перисто-слоистые, Cc - перисто-кучевые, Ac - высококучевые, As - высокослоистые, Sc - слоисто-кучевые, Ns - слоисто-дождевые, Cu - кучевые, Cb - кучево-дождевые. Подробнее классификацию облаков см. в Атласе облаков (PDF).
T - Температура воздуха - температура, измеренная на высоте 2 м над землей.
Td - Температура точки росы - температура, при понижении до которой содержащийся в воздухе водяной пар достигнет насыщения.
f - Относительная влажность воздуха - влажноcть воздуха, измеренная на высоте 2 м над землей.
Te - Эффективная температура - температура, которую ощущает одетый по сезону человек в тени. Характеристика душности погоды. При расчете учитывается влияние влажности воздуха и скорости ветра на теплоощущения человека.
Tes - Эффективная температура на солнце - температура, которую ощущает человек, с поправкой на солнечный нагрев. Характеристика знойности погоды. Зависит от высоты солнца над горизонтом, облачности и скорости ветра. Ночью, в пасмурную погоду, а также при ветре 12 м/с и более поправка равна нулю.
P - Атмосферное давление - приведенное к уровню моря атмосферное давление.
Po - Атмосферное давление - измеренное на уровне метеостанции атмосферное давление.
Tmin - Минимальная температура - минимум температуры воздуха на высоте 2 м над землей.
Tmax - Максимальная температура - максимум температуры воздуха на высоте 2 м над землей.
R - Количество осадков - Количество выпавших осадков за период времени, мм. При наведении курсора мыши на число - период времени, за который выпало указанное количество осадков.
R24 - Количество осадков - Количество выпавших осадков за 24 часа, мм.
S - Снежный покров - Высота снежного покрова, см. При наведении курсора мыши на число - состояние снежного покрова и степень покрытия местности в баллах.